Regional Weather Roundup
Issued by NWS Newport/Morehead, NC

Current Version | Previous Version | Text Only | Print | Product List | Glossary On
Versions: 1 2 3 4 5 6 7 8 9 10 11 12 13 14 15 16 17 18 19 20 21 22 23 24 25 26 27 28 29 30 31 32 33 34 35 36 37 38 39 40 41 42 43 44 45 46 47 48 49 50
000 ASUS42 KMHX 252125 RWRMHX WEATHER ROUNDUP FOR EASTERN NORTH CAROLINA NATIONAL WEATHER SERVICE NEWPORT/MOREHEAD CITY NC 500 PM EDT MON JUL 25 2016 NOTE: "FAIR" INDICATES FEW OR NO CLOUDS BELOW 12,000 FEET WITH NO SIGNIFICANT WEATHER AND/OR OBSTRUCTIONS TO VISIBILITY NCZ015>017-031-032-045>047-102-103-252200- NORTH COAST CITY SKY/WX TMP DP RH WIND PRES REMARKS EDENTON SUNNY 94 71 46 SW7 29.95F HX 101 ELIZABETH CITY SUNNY 92 73 53 S9G20 29.94F HX 100 KITTY HAWK PTCLDY 94 76 55 S9G16 29.95F HX 106 MANTEO N/A 91 78 67 SW20 29.97F HX 106 $$ NCZ045>047-081-094-103-104-252200- CENTRAL COAST CITY SKY/WX TMP DP RH WIND PRES REMARKS FRISCO SUNNY 85 78 80 SW10G18 30.00F $$ NCZ095-097-098-100-101-252200- SOUTHERN COAST CITY SKY/WX TMP DP RH WIND PRES REMARKS BEAUFORT SUNNY 87 77 72 SW18 30.01F CEDAR ISLAND NOT AVBL JACKSONVILLE SUNNY 90 71 53 S13 29.99F PINEY ISLAND NOT AVBL WILMINGTON SUNNY 90 71 53 SW12 30.00F $$ NCZ011>013-027>030-043-044-078>080-089-090>093-098-252200- COASTAL PLAIN CITY SKY/WX TMP DP RH WIND PRES REMARKS AHOSKIE SUNNY 91 77 62 S3 29.95S HX 104 CLINTON SUNNY 94 76 55 SW6 29.98S HX 106 ELIZABETHTOWN MOSUNNY 94 73 50 SW6 29.99F HX 103 GOLDSBORO MOSUNNY 96 73 46 S10 29.95F HX 106 GREENVILLE MOSUNNY 95 75 52 SW7 29.98S HX 107 HAVELOCK MOSUNNY 89 74 60 S16 30.00F KENANSVILLE NOT AVBL KINSTON SUNNY 97 72 44 SW8G16 29.97F HX 105 NEW BERN SUNNY 91 76 61 S10G18 29.99F HX 103 RICHLANDS SUNNY 92 77 61 SE15 29.98F HX 105 ROCKY MOUNT SUNNY 94 77 57 SW9 29.96F HX 108 WASHINGTON NOT AVBL WHITEVILLE SUNNY 91 76 62 S10G16 29.99F HX 103 $$ AMZ130-135-150-152-154-156-158-170-250-252-270-ANZ085-086-088-633-658-670-252200- MARINE OBSERVATIONS STATION/POSITION TIME TEMP WIND PRES WAVE SWELL AIR SEA DIR/SP/G HT/PER HT/PER (UTC) (F) (DEG/KT/KT) (MB) (FT/S) (FT/S) CHESAPEAKE LIGHT NOT AVBL 64 E VA BEACH 2050 83 81 200/ 14/ 17 1014.1 3/ 5 2/ 8 DUCK 2100 91 69 200/ 12/ 17 1013.5 2 E DUCK 2011 76 N/A 1/ 8 OREGON INLET 2100 86 84 190/ 19/ 23 1015.1 13E OREGON INLT 2100 83 N/A 3/ 4 2/ 9 HATTERAS CG 2100 86 83 210/ 10/ 15 1015.4 DIAMOND BUOY 2050 85 86 220/ 17/ 21 1016.0 3/ 5 2/ 8 CAPE LOOKOUT 2100 86 210/ 13/ 18 1016.1 BEAUFORT LAB 2100 86 83 210/ 14/ 19 1015.4 30 SE NEW RVR IN 2108 85 85 220/ 16/ 19 1016.5 30 SE NEW RVR IN 2025 85 N/A 3/ 4 27 SE WRIGHTSVLE 2108 85 85 210/ 14/ 16 1016.9 5 SE WRIGHTSVLE 2108 85 84 220/ 14/ 17 1017.3 225 S CAPE HAT 2050 84 85 160/ 8/ 10 1018.6 2/ 8 2/ 8 41 SE CHARLESTON 2050 85 87 180/ 10/ 12 1016.9 2/ 9 2/ 9 $$

USA.gov is the U.S. government's official web portal to all federal, state and local government web resources and services.